Schneifelwetter: Wetterstation Hallschlag, 537 m . NN
Wetterdaten: Donnerstag, 18.02.2010
Datum Zeit Temp. A. Feuchte A. Luftdruck Regen Wind Richtung Richtung Sonnenschein Helligkeit T Regen Taupunkt Windchill
18.02.2010 00:00 0,7 C 99 % 991 hPa 0,3 l/m 9,2 km/h (2 Bft) W-SW22.5 240 0 min 0 lux 15,00 min 0,6 C -2,0 C
18.02.2010 00:15 0,9 C 99 % 991 hPa 0,0 l/m 12,5 km/h (3 Bft) SW22.5 220 0 min 0 lux 0,00 min 0,8 C -4,3 C
18.02.2010 00:30 0,9 C 99 % 991 hPa 0,0 l/m 12,1 km/h (2 Bft) SW22.5 225 0 min 0 lux 0,00 min 0,8 C -4,0 C
18.02.2010 00:45 0,9 C 99 % 991 hPa 0,0 l/m 10,8 km/h (2 Bft) S-SW22.5 195 0 min 0 lux 0,00 min 0,8 C -3,1 C
18.02.2010 01:01 1,1 C 99 % 991 hPa 0,0 l/m 16,2 km/h (3 Bft) S-SW22.5 195 0 min 0 lux 0,00 min 1,0 C -6,3 C
18.02.2010 01:16 1,1 C 99 % 991 hPa 0,0 l/m 14,8 km/h (3 Bft) S-SW22.5 205 0 min 0 lux 0,00 min 1,0 C -5,5 C
18.02.2010 01:31 1,1 C 99 % 991 hPa 0,0 l/m 15,8 km/h (3 Bft) S22.5 190 0 min 0 lux 0,00 min 1,0 C -6,1 C
18.02.2010 01:46 1,1 C 99 % 991 hPa 0,0 l/m 14,7 km/h (3 Bft) S-SW45 195 0 min 0 lux 0,00 min 1,0 C -5,5 C
18.02.2010 02:01 1,1 C 99 % 991 hPa 0,0 l/m 12,3 km/h (3 Bft) SW22.5 220 0 min 0 lux 0,00 min 1,0 C -3,9 C
18.02.2010 02:16 1,1 C 99 % 991 hPa 0,0 l/m 10,8 km/h (2 Bft) S-SW22.5 210 0 min 0 lux 0,00 min 1,0 C -2,9 C
18.02.2010 02:31 1,0 C 99 % 991 hPa 0,0 l/m 7,2 km/h (2 Bft) SW 230 0 min 0 lux 0,00 min 0,9 C 0,2 C
18.02.2010 02:46 0,9 C 99 % 991 hPa 0,0 l/m 6,2 km/h (2 Bft) SW 230 0 min 0 lux 0,00 min 0,8 C 0,9 C
18.02.2010 03:01 0,9 C 99 % 991 hPa 0,3 l/m 7,3 km/h (2 Bft) S-SW22.5 210 0 min 0 lux 15,00 min 0,8 C -0,0 C
18.02.2010 03:16 0,9 C 99 % 991 hPa 0,0 l/m 13,5 km/h (3 Bft) SW45 225 0 min 0 lux 0,00 min 0,8 C -5,0 C
18.02.2010 03:31 0,9 C 99 % 991 hPa 0,0 l/m 14,6 km/h (3 Bft) S-SW 195 0 min 0 lux 0,00 min 0,8 C -5,7 C
18.02.2010 03:46 0,9 C 99 % 991 hPa 0,3 l/m 10,0 km/h (2 Bft) S-SW22.5 200 0 min 0 lux 15,00 min 0,8 C -2,5 C
18.02.2010 04:01 0,8 C 99 % 991 hPa 0,0 l/m 4,3 km/h (1 Bft) S-SW 205 0 min 0 lux 0,00 min 0,7 C 0,8 C
18.02.2010 04:16 0,8 C 99 % 991 hPa 0,0 l/m 8,3 km/h (2 Bft) S-SW 210 0 min 0 lux 0,00 min 0,7 C -1,1 C
18.02.2010 04:31 1,0 C 99 % 991 hPa 0,3 l/m 14,1 km/h (3 Bft) S-SW45 205 0 min 0 lux 15,00 min 0,9 C -5,2 C
18.02.2010 04:46 1,1 C 99 % 991 hPa 0,0 l/m 13,7 km/h (3 Bft) SW45 230 0 min 0 lux 0,00 min 1,0 C -4,9 C
18.02.2010 05:01 1,2 C 99 % 991 hPa 0,0 l/m 19,4 km/h (3 Bft) S-SW45 205 0 min 0 lux 0,00 min 1,1 C -7,8 C
18.02.2010 05:15 1,2 C 99 % 991 hPa 0,0 l/m 15,6 km/h (3 Bft) SW22.5 225 0 min 0 lux 0,00 min 1,1 C -5,9 C
18.02.2010 05:30 1,1 C 99 % 991 hPa 0,3 l/m 15,0 km/h (3 Bft) SW22.5 220 0 min 0 lux 15,00 min 1,0 C -5,6 C
18.02.2010 05:45 1,1 C 99 % 992 hPa 0,0 l/m 16,6 km/h (3 Bft) SW45 225 0 min 0 lux 0,00 min 1,0 C -6,5 C
18.02.2010 06:00 1,0 C 99 % 992 hPa 0,3 l/m 18,3 km/h (3 Bft) SW45 220 0 min 0 lux 15,00 min 0,9 C -7,5 C
18.02.2010 06:15 0,9 C 99 % 992 hPa 0,0 l/m 19,5 km/h (3 Bft) W-SW45 240 0 min 0 lux 0,00 min 0,8 C -8,2 C
18.02.2010 06:30 0,8 C 99 % 992 hPa 0,3 l/m 19,2 km/h (3 Bft) W-SW45 240 0 min 0 lux 15,00 min 0,7 C -8,2 C
18.02.2010 06:45 0,7 C 99 % 992 hPa 0,0 l/m 16,3 km/h (3 Bft) W-SW45 240 0 min 0 lux 0,00 min 0,6 C -6,9 C
18.02.2010 07:00 0,7 C 99 % 992 hPa 0,3 l/m 18,4 km/h (3 Bft) SW22.5 225 0 min 0 lux 15,00 min 0,6 C -8,0 C
18.02.2010 07:15 0,7 C 99 % 992 hPa 0,0 l/m 19,6 km/h (3 Bft) W-SW22.5 240 0 min 0 lux 0,00 min 0,6 C -8,5 C
18.02.2010 07:30 0,7 C 99 % 993 hPa 0,0 l/m 19,5 km/h (3 Bft) W-SW22.5 245 0 min 124 lux 0,00 min 0,6 C -8,5 C
18.02.2010 07:45 0,8 C 99 % 993 hPa 0,0 l/m 15,6 km/h (3 Bft) W-SW45 245 0 min 257 lux 0,00 min 0,7 C -6,4 C
18.02.2010 08:00 0,8 C 99 % 993 hPa 0,0 l/m 27,1 km/h (4 Bft) SW45 235 0 min 675 lux 0,00 min 0,7 C -11,4 C
18.02.2010 08:15 0,8 C 99 % 993 hPa 0,0 l/m 18,4 km/h (3 Bft) W-SW22.5 245 0 min 1,11 klux 0,00 min 0,7 C -7,8 C
18.02.2010 08:30 0,7 C 99 % 994 hPa 0,0 l/m 15,5 km/h (3 Bft) W-SW22.5 240 0 min 992 lux 0,00 min 0,6 C -6,4 C
18.02.2010 08:45 0,7 C 99 % 994 hPa 0,0 l/m 19,0 km/h (3 Bft) W-SW22.5 250 0 min 1,04 klux 0,00 min 0,6 C -8,3 C
18.02.2010 09:01 0,7 C 99 % 994 hPa 0,0 l/m 19,8 km/h (3 Bft) W-SW22.5 250 0 min 5,36 klux 0,00 min 0,6 C -8,6 C
18.02.2010 09:15 0,8 C 99 % 994 hPa 0,0 l/m 21,2 km/h (4 Bft) W-SW22.5 250 0 min 6,63 klux 0,00 min 0,7 C -9,1 C
18.02.2010 09:30 0,9 C 99 % 995 hPa 0,0 l/m 22,8 km/h (4 Bft) W-SW22.5 255 0 min 7,98 klux 0,00 min 0,8 C -9,7 C
18.02.2010 09:45 1,1 C 99 % 995 hPa 0,0 l/m 18,6 km/h (3 Bft) W-SW45 250 0 min 13,4 klux 0,00 min 1,0 C -7,6 C
18.02.2010 10:00 1,3 C 99 % 995 hPa 0,0 l/m 20,0 km/h (4 Bft) W-SW22.5 250 15 min 51,8 klux 0,00 min 1,2 C -8,0 C
18.02.2010 10:15 1,7 C 99 % 995 hPa 0,0 l/m 25,8 km/h (4 Bft) W-SW22.5 250 15 min 63,9 klux 0,00 min 1,6 C -9,7 C
18.02.2010 10:30 2,1 C 99 % 995 hPa 0,0 l/m 30,7 km/h (5 Bft) SW45 230 15 min 34,3 klux 0,00 min 2,0 C -10,7 C
18.02.2010 10:46 1,9 C 97 % 995 hPa 0,0 l/m 31,8 km/h (5 Bft) W-SW22.5 250 16 min 63,0 klux 0,00 min 1,5 C -11,2 C
18.02.2010 11:00 1,9 C 95 % 996 hPa 0,0 l/m 27,2 km/h (4 Bft) W-SW22.5 250 14 min 35,4 klux 0,00 min 1,2 C -9,9 C
18.02.2010 11:15 1,8 C 92 % 996 hPa 0,0 l/m 23,0 km/h (4 Bft) W-SW22.5 245 15 min 69,3 klux 0,00 min 0,6 C -8,5 C
18.02.2010 11:30 1,9 C 93 % 996 hPa 0,0 l/m 22,4 km/h (4 Bft) W-SW45 245 15 min 66,8 klux 0,00 min 0,9 C -8,2 C
18.02.2010 11:45 2,7 C 93 % 996 hPa 0,0 l/m 25,0 km/h (4 Bft) W-SW22.5 250 15 min 73,9 klux 0,00 min 1,7 C -8,1 C
18.02.2010 12:00 2,6 C 90 % 996 hPa 0,0 l/m 29,5 km/h (5 Bft) W-SW45 245 15 min 59,8 klux 0,00 min 1,1 C -9,6 C
18.02.2010 12:16 2,2 C 89 % 996 hPa 0,0 l/m 29,8 km/h (5 Bft) SW45 230 16 min 60,7 klux 0,00 min 0,6 C -10,3 C
18.02.2010 12:31 2,2 C 89 % 996 hPa 0,0 l/m 29,0 km/h (5 Bft) W-SW22.5 245 15 min 57,6 klux 0,00 min 0,6 C -10,0 C
18.02.2010 12:45 2,3 C 89 % 996 hPa 0,0 l/m 23,3 km/h (4 Bft) SW45 230 14 min 57,7 klux 0,00 min 0,7 C -8,0 C
18.02.2010 13:00 2,3 C 87 % 996 hPa 0,0 l/m 31,2 km/h (5 Bft) W-SW22.5 250 15 min 57,8 klux 0,00 min 0,4 C -10,5 C
18.02.2010 13:15 2,3 C 85 % 996 hPa 0,0 l/m 29,7 km/h (5 Bft) SW22.5 225 15 min 57,8 klux 0,00 min 0,0 C -10,1 C
18.02.2010 13:30 2,3 C 84 % 996 hPa 0,0 l/m 23,6 km/h (4 Bft) SW22.5 220 15 min 57,2 klux 0,00 min -0,1 C -8,1 C
18.02.2010 13:45 2,5 C 84 % 996 hPa 0,0 l/m 27,0 km/h (4 Bft) W-SW22.5 250 15 min 56,2 klux 0,00 min 0,1 C -9,0 C
18.02.2010 14:01 2,5 C 83 % 996 hPa 0,0 l/m 26,8 km/h (4 Bft) SW45 225 16 min 55,4 klux 0,00 min -0,1 C -8,9 C
18.02.2010 14:16 2,7 C 81 % 996 hPa 0,0 l/m 25,8 km/h (4 Bft) SW45 215 15 min 54,1 klux 0,00 min -0,2 C -8,3 C
18.02.2010 14:30 2,8 C 82 % 996 hPa 0,0 l/m 30,8 km/h (5 Bft) SW45 225 14 min 52,5 klux 0,00 min 0,0 C -9,7 C
18.02.2010 14:45 2,8 C 81 % 996 hPa 0,0 l/m 25,6 km/h (4 Bft) W-SW45 240 15 min 50,7 klux 0,00 min -0,1 C -8,1 C
18.02.2010 15:00 3,0 C 80 % 996 hPa 0,0 l/m 25,1 km/h (4 Bft) SW45 220 15 min 48,5 klux 0,00 min -0,1 C -7,7 C
18.02.2010 15:15 3,0 C 80 % 996 hPa 0,0 l/m 26,0 km/h (4 Bft) SW45 220 15 min 45,6 klux 0,00 min -0,1 C -8,0 C
18.02.2010 15:30 3,0 C 80 % 995 hPa 0,0 l/m 24,7 km/h (4 Bft) W-SW45 240 15 min 32,6 klux 0,00 min -0,1 C -7,6 C
18.02.2010 15:46 2,7 C 81 % 995 hPa 0,0 l/m 22,7 km/h (4 Bft) SW45 220 0 min 19,3 klux 0,00 min -0,2 C -7,2 C
18.02.2010 16:00 2,7 C 81 % 995 hPa 0,0 l/m 23,6 km/h (4 Bft) SW45 215 14 min 37,2 klux 0,00 min -0,2 C -7,6 C
18.02.2010 16:15 2,8 C 82 % 995 hPa 0,0 l/m 14,6 km/h (3 Bft) SW45 215 15 min 39,6 klux 0,00 min 0,0 C -3,4 C
18.02.2010 16:30 2,7 C 82 % 995 hPa 0,0 l/m 17,5 km/h (3 Bft) SW45 215 15 min 31,4 klux 0,00 min -0,1 C -5,0 C
18.02.2010 16:45 2,3 C 83 % 995 hPa 0,0 l/m 22,1 km/h (4 Bft) S-SW22.5 195 0 min 20,2 klux 0,00 min -0,3 C -7,5 C
18.02.2010 17:00 2,2 C 85 % 995 hPa 0,0 l/m 24,8 km/h (4 Bft) S-SW22.5 205 0 min 4,44 klux 0,00 min -0,1 C -8,7 C
18.02.2010 17:16 2,0 C 87 % 995 hPa 0,0 l/m 17,0 km/h (3 Bft) S-SW45 200 0 min 4,76 klux 0,00 min 0,1 C -5,6 C
18.02.2010 17:31 1,9 C 87 % 995 hPa 0,0 l/m 16,6 km/h (3 Bft) S-SW45 210 0 min 2,98 klux 0,00 min -0,0 C -5,6 C
18.02.2010 17:45 1,5 C 88 % 995 hPa 0,0 l/m 12,1 km/h (2 Bft) SW22.5 230 0 min 1,98 klux 0,00 min -0,3 C -3,3 C
18.02.2010 18:00 1,2 C 89 % 995 hPa 0,0 l/m 11,3 km/h (2 Bft) S22.5 180 0 min 851 lux 0,00 min -0,4 C -3,1 C
18.02.2010 18:15 1,1 C 90 % 995 hPa 0,0 l/m 11,1 km/h (2 Bft) SW22.5 225 0 min 292 lux 0,00 min -0,4 C -3,1 C
18.02.2010 18:30 1,2 C 91 % 995 hPa 0,0 l/m 9,6 km/h (2 Bft) W-SW22.5 240 0 min 27 lux 0,00 min -0,1 C -1,8 C
18.02.2010 18:45 1,0 C 91 % 995 hPa 0,0 l/m 4,5 km/h (1 Bft) S-SW 205 0 min 1 lux 0,00 min -0,3 C 1,0 C
18.02.2010 19:01 1,1 C 92 % 995 hPa 0,0 l/m 9,2 km/h (2 Bft) S 175 0 min 0 lux 0,00 min -0,1 C -1,6 C
18.02.2010 19:16 1,2 C 92 % 995 hPa 0,0 l/m 10,5 km/h (2 Bft) S22.5 175 0 min 0 lux 0,00 min 0,0 C -2,5 C
18.02.2010 19:30 1,3 C 92 % 996 hPa 0,0 l/m 15,3 km/h (3 Bft) S-SW45 205 0 min 0 lux 0,00 min 0,1 C -5,6 C
18.02.2010 19:45 1,4 C 91 % 996 hPa 0,0 l/m 18,5 km/h (3 Bft) S22.5 175 0 min 0 lux 0,00 min 0,1 C -7,1 C
18.02.2010 20:00 1,3 C 91 % 996 hPa 0,0 l/m 15,7 km/h (3 Bft) S22.5 170 0 min 0 lux 0,00 min -0,0 C -5,8 C
18.02.2010 20:15 1,5 C 92 % 995 hPa 0,0 l/m 14,1 km/h (3 Bft) S22.5 180 0 min 0 lux 0,00 min 0,3 C -4,6 C
18.02.2010 20:30 1,5 C 92 % 995 hPa 0,0 l/m 14,9 km/h (3 Bft) S22.5 175 0 min 0 lux 0,00 min 0,3 C -5,1 C
18.02.2010 20:46 1,7 C 92 % 995 hPa 0,0 l/m 19,6 km/h (3 Bft) S45 190 0 min 0 lux 0,00 min 0,5 C -7,3 C
18.02.2010 21:00 1,7 C 92 % 995 hPa 0,0 l/m 15,5 km/h (3 Bft) S-SW45 195 0 min 0 lux 0,00 min 0,5 C -5,2 C
18.02.2010 21:15 1,7 C 92 % 995 hPa 0,0 l/m 19,8 km/h (3 Bft) S22.5 170 0 min 0 lux 0,00 min 0,5 C -7,3 C
18.02.2010 21:30 1,9 C 91 % 995 hPa 0,0 l/m 22,1 km/h (4 Bft) S45 170 0 min 0 lux 0,00 min 0,6 C -8,1 C
18.02.2010 21:45 1,9 C 91 % 995 hPa 0,0 l/m 19,5 km/h (3 Bft) S22.5 175 0 min 0 lux 0,00 min 0,6 C -7,0 C
18.02.2010 22:00 1,8 C 91 % 995 hPa 0,0 l/m 23,8 km/h (4 Bft) S45 170 0 min 0 lux 0,00 min 0,5 C -8,8 C
18.02.2010 22:16 1,9 C 92 % 995 hPa 0,0 l/m 27,5 km/h (4 Bft) S22.5 185 0 min 0 lux 0,00 min 0,7 C -10,0 C
18.02.2010 22:31 1,9 C 92 % 995 hPa 0,0 l/m 18,0 km/h (3 Bft) S45 180 0 min 0 lux 0,00 min 0,7 C -6,3 C
18.02.2010 22:45 1,9 C 92 % 995 hPa 0,0 l/m 22,4 km/h (4 Bft) S22.5 180 0 min 0 lux 0,00 min 0,7 C -8,2 C
18.02.2010 23:00 1,9 C 92 % 995 hPa 0,0 l/m 23,2 km/h (4 Bft) S22.5 175 0 min 0 lux 0,00 min 0,7 C -8,5 C
18.02.2010 23:15 1,9 C 93 % 995 hPa 0,0 l/m 20,6 km/h (4 Bft) S45 180 0 min 0 lux 0,00 min 0,9 C -7,4 C
18.02.2010 23:30 1,9 C 93 % 994 hPa 0,0 l/m 23,0 km/h (4 Bft) S22.5 175 0 min 0 lux 0,00 min 0,9 C -8,4 C
18.02.2010 23:46 1,9 C 93 % 994 hPa 0,0 l/m 21,1 km/h (4 Bft) S22.5 170 0 min 0 lux 0,00 min 0,9 C -7,6 C
_ Min-Zeit 00:00 15:00 00:00 - 04:01 - - - - - 18:00 08:00
Minimum _ 0,7 C 80 % 991 hPa - 4,3 km/h (1 Bft) - - - - - -0,4 C -11,4 C
_ Max-Zeit 15:00 00:00 11:00 00:00 10:46 - - 10:46 11:45 00:00 10:30 18:45
Maximum _ 3,0 C 99 % 996 hPa 0,3 l/m 31,8 km/h
W-SW (5 Bft)
- - 16 min 73,9 klux 15,00 min 2,0 C 1,0 C
Durchschnitt _ 1,6 C 93 % 994 hPa #2,4 l/m 18,7 km/h (3 Bft) SW - #6:29 h 15,2 klux #2:00 h 0,5 C -6,5 C